Tracking 19817 objects as of 17-Aug-2019
HD Live streaming from Space Station
objects crossing your sky now

FREGAT DEB

Track FREGAT DEB now!
10-day predictions


NORAD ID: 40078
Int'l Code: 2014-037K
Perigee: 628.9 km
Apogee: 822.4 km
Inclination: 98.1 °
Period: 99.2 minutes
Semi major axis: 7096 km
RCS: Unknown
Launch date: July 8, 2014
Source: Commonwealth of Independent States (former USSR) (CIS)
Launch site: TYURATAM MISSILE AND SPACE COMPLEX (TTMTR)

Note: This is SATELLITE DEBRIS
aabbcc
Your satellite tracking list
Your tracking list is empty




NASA's NSSDC Master Catalog

Two Line Element Set (TLE):
1 40078U 14037K   19228.72792964 +.00000052 +00000-0 +22574-4 0  9993
2 40078 098.1168 273.5058 0136340 246.6710 112.0091 14.52187866270536
Source of the keplerian elements: AFSPC